ONEWEB-0066, 45424

Orbit data source: Space-Track

ONEWEB-0066, 45424 is a payload satellite owned by One Web (UK) in LEO that was launched on Sat, 21 Mar 2020 UTC via a SOYUZ-2-1B launch vehicle from the Tyuratam Missile And Space Complex (TTMTR). Payload-class satellites include a variety of spacecraft equipped with specific instruments for various scientific and technological missions. These include communications satellites like Starlink; space stations such as the ISS; scientific satellites like the Hubble; Earth observation satellites from companies like Planet Labs, Umbra, and HawkEye 360; GPS; miniature CubeSats for education and research; and military/defense satellites.

Loading next visibility...
Identifier
45424, 2020-020A
Orbit
LEO
Last TLE update
13 hours ago
Origin
Manufacturer
One Web
Mission
Operational Commercial Communications
Bus & Motor
ARROW, Unknown motor
Mass
148 kg wet, ~140 kg dry
Launch date (UTC)
2020-03-21 (5 years ago)
Launch vehicle
SOYUZ-2-1B
Launch site
Tyuratam Missile And Space Complex (TTMTR)
Object type
Payload
Rocket body
Debris
Shape & HBR
Trap Box + 2 Pan, 5 m
Radar Cross Section
2.957 m², Large (>1 m²)

Expand to show TLE details & history

TLE from 13 hours ago
0 ONEWEB-0066
1 45424U 20020A   25181.80006401  .00000262  00000-0  70469-3 0  9998
2 45424  87.8840  91.1016 0001920  88.9943 271.1405 13.11418664256623
Epoch: 2025-06-30T19:12Z
TLE epoch observation values (Epoch: 2025-06-30T19:12:05.53Z)
Latitude
-0.00001°
Longitude
-116.02612°
Altitude
1,220.536 km
Speed
7.244 km/s
True Right ascension
06h 04m 24s
True Declination
0° 00' 00"
Sunlit
Object was in daylight at epoch
Visualization orbit readout
Latitude
62.32655°
Longitude
59.84279°
Altitude
1,227.167 km
Speed
7.247 km/s
Apparent Right ascension
11h 18m 17s
Apparent Declination
41° 44' 14"
Sunlit
Object is in daylight
Visualization observer readout
Local Sidereal Time
20:15:11
Azimuth
327.659° NNW
Elevation
1.604°
Doppler factor
1
Orbital elements
Apogee altitude
1,216.252 km
Perigee altitude
1,213.336 km
Semi-major axis
7,592.931 km
Eccentricity
0.00019
Inclination
87.884°
RAAN
91.1016°
Arg. of periapsis
88.9943°
True anomaly
Unknown
Mean anomaly
271.1405°
Eccentric anomaly
Unknown
Mean motion
3.28042 °/min
Orbital period
109.74 mins
BSTAR
0.00070469
Loading maneuver chart data...
Loading SW <> Apogee altitude chart data...
Loading historical data...
Loading historical data...
Loading historical data...
Loading historical data...
Loading historical data...
Loading historical data...
Loading historical data...

ONEWEB-0066 Visibility forecast

Observer location: undefined°, undefined°

Span
Click to sort rows by Start time (UTC) header in descending order
Start Az.
Max El. time (UTC)
Max El. Az.
Max El.
End time (UTC)
End Az.
12 mins2025-07-01 17:17:02.012Z135.661° SSE2025-07-01 17:23:02.012Z79.002° E27.109°2025-07-01 17:29:02.012Z21.631° NNE
12 mins2025-07-01 19:07:02.012Z208.206° SW2025-07-01 19:13:02.012Z285.34° WNW36.13°2025-07-01 19:19:02.012Z347.226° N
9 mins2025-07-02 04:48:02.012Z37.171° NE2025-07-02 04:52:02.012Z78.984° E22.523°2025-07-02 04:57:02.012Z125.759° SE
13 mins2025-07-02 06:36:02.012Z349.762° N2025-07-02 06:42:02.012Z280.29° WNW40.621°2025-07-02 06:49:02.012Z198.648° SSW
|